Waarnemingen

Advertentie
Mijn weer
Perpignan, Frankrijk (7747): temperatuur & dauwpunt: 14.08.2017 04:00:00 - 20.08.2017 04:00:00 (CEST)Perpignan, Frankrijk (7747): temperatuur 5cm: 14.08.2017 04:00:00 - 20.08.2017 04:00:00 (CEST)Perpignan, Frankrijk (7747): temperatuur -20cm & temperatuur -100cm: 14.08.2017 04:00:00 - 20.08.2017 04:00:00 (CEST)Perpignan, Frankrijk (7747): windsnelheid & windstoten: 14.08.2017 04:00:00 - 20.08.2017 04:00:00 (CEST)Perpignan, Frankrijk (7747): windrichting: 14.08.2017 04:00:00 - 20.08.2017 04:00:00 (CEST)Perpignan, Frankrijk (7747): luchtdruk: 14.08.2017 04:00:00 - 20.08.2017 04:00:00 (CEST)Perpignan, Frankrijk (7747): zicht: 14.08.2017 04:00:00 - 20.08.2017 04:00:00 (CEST)Perpignan, Frankrijk (7747): Zonneschijnduur: 14.08.2017 04:00:00 - 20.08.2017 04:00:00 (CEST)Perpignan, Frankrijk (7747): neerslag: 14.08.2017 04:00:00 - 20.08.2017 04:00:00 (CEST)
Datum & Tijd tt [°C] td [°C] tt 5cm [°C] tt -20cm [°C] tt -100cm [°C] ff [km/u] ff [kn] fx [km/u] fx [kn] dd ppp [hPa] vv [km] sd [min] rr [mm]
20.08.2017 04:00:00 20,4 7,0 19,1 28,7 26,5 15 8 29 16 WNW 1022,1 60 0 0,0
20.08.2017 03:00:00 20,6 6,9 19,2 29,1 26,5 16 8 31 17 WNW 1021,8 60 0 0,0
20.08.2017 02:00:00 21,5 7,0 20,6 29,3 26,5 16 9 38 21 WNW 1021,8 60 0 0,0
20.08.2017 01:00:00 22,0 7,0 20,7 29,6 26,5 18 10 31 17 WNW 1022,0 60 0 0,0
20.08.2017 00:00:00 22,5 6,7 21,1 29,9 26,5 14 8 34 19 NW 1022,0 60 0 0,0
19.08.2017 23:00:00 23,2 8,8 22,6 30,1 26,4 22 12 36 19 NNW 1021,8 60 0 0,0
19.08.2017 22:00:00 24,1 11,4 23,7 30,3 26,4 21 12 38 20 NNW 1021,2 60 0 0,0
19.08.2017 21:00:00 24,9 10,4 24,4 30,4 26,4 23 12 41 22 NW 1020,3 60 0 0,0
19.08.2017 20:00:00 25,8 10,8 26,0 30,4 26,4 25 14 42 23 NW 1019,9 60 14 0,0
19.08.2017 19:00:00 27,0 10,7 28,6 30,2 26,4 27 14 48 26 NW 1019,1 53 60 0,0
19.08.2017 18:00:00 27,8 11,8 31,0 29,9 26,4 25 13 49 26 NW 1018,9 45 60 0,0
19.08.2017 17:00:00 28,6 12,1 32,4 29,6 26,4 28 15 47 26 NW 1018,8 46 60 0,0
19.08.2017 16:00:00 28,0 12,4 32,1 29,2 26,4 30 16 46 25 NW 1019,1 44 60 0,0
19.08.2017 15:00:00 27,9 13,4 31,7 28,8 26,4 28 15 46 25 WNW 1019,4 55 60 0,0
19.08.2017 14:00:00 26,8 13,5 31,5 28,5 26,4 26 14 46 25 NW 1019,7 59 60 0,0
19.08.2017 13:00:00 26,3 13,4 29,7 28,3 26,4 23 13 44 24 NW 1020,1 60 60 0,0
19.08.2017 12:00:00 25,2 13,7 27,4 28,3 26,4 23 13 48 26 NW 1020,4 60 32 0,0
19.08.2017 11:00:00 24,3 13,8 27,0 28,3 26,4 25 13 44 24 NNW 1020,5 57 55 0,0
19.08.2017 10:00:00 23,6 14,3 24,0 28,4 26,3 21 11 36 19 NW 1020,6 56 38 0,0
19.08.2017 09:00:00 22,5 14,1 22,5 28,6 26,4 16 8 28 15 NW 1020,3 59 1 0,0
19.08.2017 08:00:00 22,1 14,2 21,8 28,8 26,3 13 7 22 12 NW 1020,3 60 0 0,0
19.08.2017 07:00:00 22,1 14,5 21,9 29,0 26,3 9 5 31 17 WNW 1020,2 60 0 0,0
19.08.2017 06:00:00 22,3 14,7 22,0 29,2 26,3 15 8 38 20 NW 1019,7 60 0 0,0
19.08.2017 05:00:00 22,2 14,6 22,0 29,5 26,3 22 12 43 23 NW 1019,2 60 0 0,0
19.08.2017 04:00:00 22,2 14,8 21,8 29,7 26,3 18 10 37 20 NW 1019,1 60 0 0,0
19.08.2017 03:00:00 22,3 14,9 20,7 29,9 26,3 17 9 40 21 WNW 1018,7 60 0 0,0
19.08.2017 02:00:00 23,1 17,1 22,9 30,2 26,3 17 9 40 21 NW 1018,7 60 0 0,0
19.08.2017 01:00:00 23,4 16,9 22,8 30,5 26,3 19 10 40 22 WNW 1018,6 60 0 0,0
19.08.2017 00:00:00 23,3 17,3 22,5 30,8 26,3 23 12 37 20 W 1018,2 60 0 0,0
18.08.2017 23:00:00 23,1 17,8 21,1 31,0 26,3 21 12 36 20 WNW 1018,2 60 0 0,0
18.08.2017 22:00:00 22,7 18,5 20,7 31,2 26,3 26 14 48 26 WNW 1018,5 32 0 0,0
18.08.2017 21:00:00 24,5 18,0 24,3 31,4 26,3 29 16 50 27 WNW 1018,0 60 0 0,0
18.08.2017 20:00:00 26,5 17,0 26,8 31,4 26,3 36 19 61 33 NW 1017,0 55 0 0,0
18.08.2017 19:00:00 28,7 16,6 30,1 31,3 26,2 29 16 49 26 NW 1016,3 53 42 0,0
18.08.2017 18:00:00 30,5 16,1 31,5 30,9 26,2 23 12 44 24 NW 1015,5 51 9 0,0
18.08.2017 17:00:00 33,1 16,5 35,2 30,4 26,2 27 15 41 22 WNW 1015,0 20 42 0,0
18.08.2017 16:00:00 32,4 16,3 37,4 29,8 26,2 9 5 22 12 O 1015,1 55 60 0,0
18.08.2017 15:00:00 31,7 16,4 35,9 29,3 26,2 12 6 24 13 O 1015,0 59 60 0,0
18.08.2017 14:00:00 31,0 16,2 36,2 28,8 26,2 25 14 47 25 O 1014,8 60 60 0,0
18.08.2017 13:00:00 30,5 15,8 36,7 28,5 26,2 12 6 23 13 O 1015,2 47 60 0,0
18.08.2017 12:00:00 30,6 15,5 36,2 28,2 26,2 13 7 19 11 O 1015,8 60 60 0,0
18.08.2017 11:00:00 30,1 15,4 35,4 28,2 26,2 9 5 14 8 O 1016,2 60 60 0,0
18.08.2017 10:00:00 28,8 15,3 32,5 28,2 26,1 7 4 12 7 Z 1016,3 56 60 0,0
18.08.2017 09:00:00 26,2 15,0 25,5 28,4 26,1 5 3 8 4 Z 1016,3 55 60 0,0
18.08.2017 08:00:00 22,8 14,6 18,3 28,7 26,1 4 2 6 4 NW 1016,4 59 38 0,0
18.08.2017 07:00:00 21,1 14,3 18,0 29,0 26,2 2 1 5 3 NNO 1015,9 60 0 0,0
18.08.2017 06:00:00 21,6 14,3 18,1 29,2 26,1 2 1 6 4 ZW 1015,4 60 0 0,0
18.08.2017 05:00:00 21,9 14,0 18,6 29,5 26,1 4 2 10 6 WZW 1015,7 60 0 0,0
18.08.2017 04:00:00 22,1 14,2 18,8 29,8 26,1 7 4 10 6 W 1016,1 60 0 0,0
18.08.2017 03:00:00 22,7 14,5 18,9 30,0 26,1 6 3 9 5 WZW 1016,3 60 0 0,0
18.08.2017 02:00:00 23,8 14,2 19,5 30,3 26,1 3 2 8 4 ZZO 1016,8 60 0 0,0
18.08.2017 01:00:00 25,6 14,1 21,7 30,6 26,1 6 3 14 7 WNW 1017,1 60 0 0,0
18.08.2017 00:00:00 26,0 14,1 22,2 30,9 26,1 7 4 17 9 WZW 1017,3 60 0 0,0
17.08.2017 23:00:00 26,5 13,9 22,5 31,1 26,1 8 5 16 8 WZW 1017,6 60 0 0,0
17.08.2017 22:00:00 27,7 15,7 22,8 31,3 26,1 4 2 8 4 ZW 1017,6 60 0 0,0
17.08.2017 21:00:00 29,2 15,3 24,6 31,3 26,1 3 1 8 5 WNW 1017,3 60 14 0,0
17.08.2017 20:00:00 30,7 15,5 30,4 31,2 26,1 6 4 17 9 O 1017,1 60 35 0,0
17.08.2017 19:00:00 32,1 15,6 35,3 30,9 26,1 13 7 22 12 OZO 1016,9 53 60 0,0
17.08.2017 18:00:00 33,3 15,8 37,7 30,5 26,1 14 8 28 15 ZO 1016,7 60 60 0,0
17.08.2017 17:00:00 33,9 15,4 38,7 29,9 26,0 11 6 26 14 OZO 1017,0 41 60 0,0
17.08.2017 16:00:00 33,5 15,9 38,9 29,3 26,1 13 7 31 17 OZO 1017,5 30 60 0,0
17.08.2017 15:00:00 34,0 15,0 39,4 28,6 26,0 5 3 27 14 O 1017,9 20 60 0,0
17.08.2017 14:00:00 32,7 15,7 39,1 28,1 26,1 9 5 27 15 NNO 1018,6 56 60 0,0
17.08.2017 13:00:00 31,2 16,0 38,5 27,7 26,0 6 3 16 9 NNO 1018,8 49 60 0,0
17.08.2017 12:00:00 30,1 16,5 36,2 27,4 26,1 7 4 22 12 WZW 1019,2 60 60 0,0
17.08.2017 11:00:00 28,6 16,5 32,0 27,4 26,1 13 7 29 16 NW 1019,5 60 60 0,0
17.08.2017 10:00:00 26,7 16,3 29,1 27,5 26,1 20 11 31 17 NW 1019,7 60 60 0,0
17.08.2017 09:00:00 25,1 16,5 25,3 27,6 26,0 13 7 23 13 WNW 1019,6 20 60 0,0
17.08.2017 08:00:00 23,4 16,7 21,5 27,8 26,1 7 4 16 9 W 1019,3 60 11 0,0
17.08.2017 07:00:00 22,8 16,6 21,6 28,0 26,1 10 5 26 14 W 1019,0 59 0 0,0
17.08.2017 06:00:00 23,3 17,1 22,4 28,2 26,0 14 8 29 16 WNW 1018,6 56 0 0,0
17.08.2017 05:00:00 23,6 17,1 22,7 28,4 26,1 18 10 29 16 NW 1018,8 51 0 0,0
17.08.2017 04:00:00 23,5 17,3 22,9 28,5 26,1 14 8 33 18 WNW 1019,2 48 0 0,0
17.08.2017 03:00:00 24,0 17,3 23,3 28,8 26,0 18 10 31 17 WNW 1019,2 51 0 0,0
17.08.2017 02:00:00 24,2 17,4 23,3 29,0 26,1 14 7 28 15 WNW 1019,2 46 0 0,0
17.08.2017 01:00:00 24,7 17,4 24,0 29,2 26,0 16 9 30 16 NW 1019,2 43 0 0,0
17.08.2017 00:00:00 25,2 17,7 24,7 29,3 26,0 20 11 36 19 NW 1019,2 42 0 0,0
16.08.2017 23:00:00 25,7 17,6 25,2 29,5 26,1 21 11 41 22 NW 1019,4 43 0 0,0
16.08.2017 22:00:00 26,3 17,6 26,0 29,6 26,0 24 13 44 24 WNW 1019,3 41 0 0,0
16.08.2017 21:00:00 27,3 17,8 26,9 29,6 26,0 20 11 37 20 WNW 1018,8 43 0 0,0
16.08.2017 20:00:00 29,3 17,5 29,6 29,5 26,0 18 10 32 17 NNW 1018,4 49 48 0,0
16.08.2017 19:00:00 30,1 16,5 31,2 29,2 26,0 2 1 15 8 ZO 1018,0 59 43 0,0
16.08.2017 18:00:00 30,1 16,1 32,3 28,8 26,0 9 5 18 10 O 1017,9 46 36 0,0
16.08.2017 17:00:00 30,8 16,4 36,1 28,3 26,0 12 7 21 12 O 1018,1 60 60 0,0
16.08.2017 16:00:00 30,2 16,2 35,6 27,8 26,0 13 7 20 11 O 1018,4 52 60 0,0
16.08.2017 15:00:00 30,0 16,4 33,5 27,5 26,0 9 5 22 12 O 1018,6 36 36 0,0
16.08.2017 14:00:00 28,8 16,4 32,3 27,1 26,0 11 6 25 13 OZO 1019,0 60 28 0,0
16.08.2017 13:00:00 28,9 18,4 31,0 26,7 26,0 16 9 22 12 O 1019,1 39 12 0,0
16.08.2017 12:00:00 28,2 18,0 32,9 26,5 26,1 5 3 14 7 NO 1019,4 52 36 0,0
16.08.2017 11:00:00 27,4 18,4 30,0 26,4 26,0 3 2 9 5 O 1019,6 60 49 0,0
16.08.2017 10:00:00 25,5 18,4 28,2 26,4 26,0 6 3 11 6 O 1019,7 40 60 0,0
16.08.2017 09:00:00 22,3 18,9 22,2 26,6 26,1 0 0 9 5 N 1019,9 34 55 0,0
16.08.2017 08:00:00 19,6 18,4 16,5 26,7 26,0 0 0 7 4 N 1019,7 20 20 0,0
16.08.2017 07:00:00 18,7 17,7 16,2 26,9 26,0 4 2 9 5 ZW 1019,6 16 0 0,0
16.08.2017 06:00:00 19,0 17,7 16,2 27,1 26,0 3 1 4 2 W 1019,4 13 0 0,0
16.08.2017 05:00:00 19,5 18,2 17,6 27,3 26,0 6 3 8 4 N 1019,6 11 0 0,0
16.08.2017 04:00:00 19,7 18,5 17,2 27,6 26,0 5 3 10 5 NW 1019,9 18 0 0,0
16.08.2017 03:00:00 19,8 18,3 17,2 27,7 26,0 3 2 8 5 ZW 1020,0 20 0 0,0
16.08.2017 02:00:00 20,8 19,1 17,9 27,9 26,0 0 0 8 4 N 1020,8 13 0 0,0
16.08.2017 01:00:00 21,2 19,3 19,9 28,1 26,0 4 2 7 4 NO 1020,1 19 0 0,0
16.08.2017 00:00:00 21,6 19,7 20,1 28,3 26,0 6 3 7 4 NNO 1020,2 19 0 0,0
15.08.2017 23:00:00 21,7 19,6 21,2 28,4 26,0 3 2 8 4 N 1020,0 23 0 0,0
15.08.2017 22:00:00 22,0 19,5 21,3 28,6 26,0 6 3 9 5 N 1020,1 31 0 0,0
15.08.2017 21:00:00 22,2 19,2 22,1 28,7 26,0 6 3 13 7 NO 1019,8 32 0 0,0
15.08.2017 20:00:00 22,8 19,4 23,6 28,7 26,0 11 6 26 14 NO 1019,4 32 21 0,0
15.08.2017 19:00:00 23,4 19,3 22,5 28,8 26,0 16 9 33 18 ONO 1018,3 39 8 0,0
15.08.2017 18:00:00 22,2 19,4 21,3 28,6 26,0 29 16 46 25 NNO 1017,4 23 0 0,0
15.08.2017 17:00:00 23,5 18,4 25,0 28,4 26,0 10 5 35 19 NO 1021,0 57 5 0,0
15.08.2017 16:00:00 24,7 18,9 29,0 28,0 26,0 26 14 39 21 NO 1019,5 31 29 0,0
15.08.2017 15:00:00 26,1 20,0 30,3 27,7 26,0 26 14 37 20 ONO 1019,0 31 52 0,0
15.08.2017 14:00:00 25,9 20,2 27,8 27,5 26,0 23 12 33 18 O 1019,0 31 10 0,0
15.08.2017 13:00:00 24,8 19,8 27,4 27,1 26,0 21 11 33 18 OZO 1019,3 49 17 0,0
15.08.2017 12:00:00 25,7 18,6 29,4 27,0 26,0 16 8 27 14 ONO 1019,4 50 38 0,0
15.08.2017 11:00:00 25,2 18,4 25,6 26,9 26,0 10 5 18 10 ONO 1019,5 39 47 0,0
15.08.2017 10:00:00 23,4 18,9 25,1 27,0 26,0 6 4 11 6 NO 1019,7 35 37 0,0
15.08.2017 09:00:00 21,7 18,9 22,4 27,1 26,0 0 0 6 3 N 1019,8 31 1 0,0
15.08.2017 08:00:00 20,6 19,1 18,1 27,3 26,0 3 2 6 4 ZZW 1019,6 27 29 0,0
15.08.2017 07:00:00 20,1 18,8 18,0 27,5 25,9 4 2 10 5 WNW 1019,3 18 0 0,0
15.08.2017 06:00:00 20,4 18,9 18,5 27,7 26,0 0 0 10 6 N 1019,1 14 0 0,0
15.08.2017 05:00:00 21,2 19,7 19,4 27,8 26,0 8 4 15 8 NNW 1018,8 20 0 0,0
15.08.2017 04:00:00 19,7 18,2 19,3 28,0 25,9 7 4 11 6 N 1018,6 10 0 0,0
15.08.2017 03:00:00 20,8 19,1 20,3 28,2 26,0 9 5 22 12 NNW 1018,1 19 0 0,0
15.08.2017 02:00:00 21,7 19,8 21,2 28,5 26,0 16 9 24 13 NNW 1018,2 30 0 0,0
15.08.2017 01:00:00 21,7 19,4 21,3 28,7 26,0 13 7 20 11 NNW 1018,1 28 0 0,0
15.08.2017 00:00:00 21,8 19,2 21,4 28,9 25,9 13 7 18 10 NNW 1017,7 29 0 0,0
14.08.2017 23:00:00 22,3 19,5 21,8 29,1 25,9 12 6 19 10 NNW 1017,8 28 0 0,0
14.08.2017 22:00:00 23,0 19,2 22,6 29,2 25,9 14 8 18 10 N 1017,5 35 0 0,0
14.08.2017 21:00:00 24,2 18,4 24,0 29,2 25,9 11 6 18 10 NO 1016,8 47 11 0,0
14.08.2017 20:00:00 25,2 19,1 26,3 29,2 25,9 15 8 22 12 ONO 1016,4 45 60 0,0
14.08.2017 19:00:00 25,8 19,9 27,3 29,0 25,9 14 8 36 19 ONO 1016,3 43 29 0,0
14.08.2017 18:00:00 26,9 20,3 28,1 28,7 25,9 21 12 36 19 O 1016,6 20 29 0,0
14.08.2017 17:00:00 27,9 19,9 32,6 28,3 25,9 21 11 41 22 O 1016,7 58 60 0,0
14.08.2017 16:00:00 27,6 20,4 32,2 27,8 25,9 23 12 34 18 O 1016,8 20 56 0,0
14.08.2017 15:00:00 27,7 20,3 30,5 27,5 25,9 23 12 34 18 O 1017,4 33 55 0,0
14.08.2017 14:00:00 25,7 19,1 27,1 27,3 25,9 19 10 31 17 ONO 1018,0 30 17 0,0
14.08.2017 13:00:00 23,3 19,9 27,1 27,1 25,9 22 12 32 17 NO 1018,6 13 1 0,0
14.08.2017 12:00:00 23,3 19,7 27,1 27,0 25,9 18 10 29 15 NNO 1018,6 20 37 0,0
14.08.2017 11:00:00 23,8 19,7 26,0 26,9 25,9 18 10 27 15 NO 1018,4 29 19 0,0
14.08.2017 10:00:00 22,4 19,0 23,7 27,0 25,9 13 7 20 11 NO 1018,2 20 11 0,0
14.08.2017 09:00:00 21,5 18,5 21,7 27,2 25,9 8 5 13 7 NO 1018,0 20 0 0,0
14.08.2017 08:00:00 20,8 18,9 19,8 27,4 25,9 9 5 18 10 NNO 1017,6 20 0 0,0
14.08.2017 07:00:00 20,0 18,5 16,3 27,6 25,9 11 6 16 8 ONO 1017,4 19 0 0,0
14.08.2017 06:00:00 19,6 16,6 16,4 27,9 25,9 0 0 10 5 N 1017,1 42 0 0,0
14.08.2017 05:00:00 20,5 18,1 19,0 28,2 25,9 10 5 14 8 NO 1016,9 35 0 0,0
14.08.2017 04:00:00 20,5 13,9 18,0 28,4 25,9 7 4 15 8 NO 1017,3 60 0 0,0

tt = temperatuur
td = dauwpunt
tt 5cm = temperatuur 5cm
tt -20cm = temperatuur -20cm
tt -100cm = temperatuur -100cm
ff = windsnelheid
fx = windstoten
dd = windrichting
ppp = luchtdruk
vv = zicht
sd = Zonneschijnduur
rr = neerslag

Weerstations in de omgeving